Regional Weather Roundup
Issued by NWS

Home | Current Version | Previous Version | Text Only | Print | Product List | Glossary Off
Versions: 1 2 3 4 5 6 7 8 9 10 11 12 13 14 15 16 17 18 19 20 21 22 23 24 25 26 27 28 29 30 31 32 33 34 35 36 37 38 39 40 41 42 43 44 45 46 47 48 49 50

000
ASUS43 KDMX 261407
RWRIA

WEATHER ROUNDUP FOR IOWA
NATIONAL WEATHER SERVICE DES MOINES IA
900 AM CDT TUE MAY 26 2015

NOTE: "FAIR" INDICATES FEW OR NO CLOUDS BELOW 12,000 FEET WITH NO
SIGNIFICANT WEATHER AND/OR OBSTRUCTIONS TO VISIBILITY.

* - THESE STATIONS ARE NOT NWS STATIONS...THUS NOT UNDER NWS
QUALITY CONTROL.  THEY ALSO DO NOT REPORT WEATHER SUCH
AS PRECIPITATION OR FOG.

IAZ001>003-012>014-020>022-031>034-043>046-261500-
   NORTHWEST IOWA

CITY           SKY/WX    TMP DP  RH WIND       PRES   REMARKS
CARROLL *      CLOUDY    61  61 100 CALM      29.77F
CHEROKEE *     DRIZZLE   61  61 100 CALM      29.78F
DENISON *      SUNNY     61  61 100 CALM      29.76S
LE MARS *      CLOUDY    61  59  94 N7        29.81S
ORANGE CITY *  DRIZZLE   55  55 100 N7        29.81S
SHELDON *      CLOUDY    57  55  94 NE14      29.80S
SIOUX CITY     LGT RAIN  62  59  90 N3        29.79R FOG
SPENCER        LGT RAIN  60  58  92 N7        29.79F
STORM LAKE *   PTSUNNY   61  59  94 SW3       29.79S
$$

IAZ055>058-069>071-079>083-090>094-261500-
   SOUTHWEST IOWA

CITY           SKY/WX    TMP DP  RH WIND       PRES   REMARKS
ATLANTIC *     CLOUDY    61  61 100 CALM      29.79R
AUDUBON *      LGT RAIN  61  57  88 CALM      29.78S
COUNCIL BLFS * PTSUNNY   63  63 100 SW6       29.79R
CRESTON *      CLOUDY    61  61 100 W6        29.80R FOG
HARLAN  *      SUNNY     61  61 100 CALM      29.81S
LAMONI         CLOUDY    64  60  87 SW10      29.80R
RED OAK *      MOSUNNY   63  61  94 S7        29.80R
SHENANDOAH *   CLOUDY    64  61  88 S8        29.81R
$$

IAZ047>049-059>061-072>074-084-261500-
   CENTRAL IOWA

CITY           SKY/WX    TMP DP  RH WIND       PRES   REMARKS
AMES           LGT RAIN  61  59  93 NW6       29.77S FOG
ANKENY *       RAIN      61  61 100 N12       29.75F
CHARITON *     DRIZZLE   61  61 100 N9        29.76F
DES MOINES     LGT RAIN  63  60  90 N9        29.75F FOG
GRINNELL*      CLOUDY    61  59  94 N16       29.74F
KNOXVILLE *    LGT RAIN  63  61  94 N8        29.74F
MARSHALLTOWN   RAIN      60  59  96 N10       29.75F FOG
PELLA *        RAIN      61  61 100 NW7       29.77R
PERRY *        LGT RAIN  61  59  94 NE6       29.77S
$$

IAZ004>006-015-016-023>025-035-036-261500-
   NORTH CENTRAL IOWA

CITY           SKY/WX    TMP DP  RH WIND       PRES   REMARKS
ALGONA *       MOSUNNY   61  61 100 S5        29.79S
CLARION *      LGT RAIN  61 N/A N/A NW3       29.79R
ESTHERVILLE    CLOUDY    57  56  96 N9        29.80R
FORT DODGE *   CLOUDY    59  57  94 CALM      29.79S
MASON CITY     LGT RAIN  61  58  90 W8        29.81S FOG
FOREST CITY *  RAIN      59  59 100 CALM      29.81S
IOWA FALLS *   RAIN      61  59  94 NW8       29.78S
$$

IAZ007>011-017>019-026>030-037>042-050>054-066-261500-
   NORTHEAST IOWA

CITY           SKY/WX    TMP DP  RH WIND       PRES   REMARKS
CEDAR RAPIDS   RAIN      65  65 100 SE14      29.73F FOG
CHARLES CITY * RAIN      61  61 100 N6        29.80F
CLINTON *      CLOUDY    70  66  88 SE12      29.80F
DECORAH *      LGT RAIN  61  61 100 NW8       29.81F
DUBUQUE        CLOUDY    67  64  90 SE8       29.79F
MONTICELLO *   CLOUDY    66  66 100 E6        29.76F
OELWEIN *      RAIN      61  59  94 N10       29.80F
WATERLOO       RAIN      61  59  93 N12       29.76F
$$

IAZ064-065-067-068-078-261500-
   EAST CENTRAL IOWA

CITY           SKY/WX    TMP DP  RH WIND       PRES   REMARKS
DAVENPORT      CLOUDY    70  66  87 SE18      29.78F
IOWA CITY      LGT RAIN  66  64  93 S9        29.75F
MT. PLEASANT * CLOUDY    64  64 100 S9        29.75F
MUSCATINE *    LGT RAIN  64  63  94 S7        29.77F
QUAD CITIES    CLOUDY    70  66  87 SE13      29.76F
$$

IAZ062-063-075>077-085>089-095>099-261500-
   SOUTHEAST IOWA

CITY           SKY/WX    TMP DP  RH WIND       PRES   REMARKS
BURLINGTON     CLOUDY    65  64  97 S7        29.76F
FAIRFIELD *    MOSUNNY   68  63  83 S13       29.74S
FORT MADISON * CLOUDY    64  64 100 S10       29.77F
KEOKUK *       SUNNY     66  64  94 S13G18    29.76F
OSKALOOSA *    CLOUDY    61  59  94 NE17      29.72F
CENTERVILLE *  MOSUNNY   64  64 100 W17       29.76S
OTTUMWA        LGT RAIN  62  60  93 N10       29.72F
WASHINGTON *   CLOUDY    66  64  94 S10       29.75F
$$

ABBREVIATIONS USED IN REMARKS
   TC - TEMPERATURES IN CELSIUS
  WCI - WIND CHILL INDEX
   HX - HEAT INDEX
  VSB - VISIBILITY
$$



USA.gov is the U.S. government's official web portal to all federal, state and local government web resources and services.